Back to catalog

SAUDICOMSAT 2

AliveCommunicationsSSO
NORAD 28370·PAYLOAD·🇸🇦 Saudi Arabia

Launched Jun 29, 2004 from Baikonur Cosmodrome

Loading…

Next Passes (next 24 hours)

TLE

FreshSource: Space-Track

Epoch: Sep 14, 2026, 11:41 UTC

1 28370U 04025E   26257.48722667  .00000181  00000-0  58440-4 0  9990
2 28370  98.6650 272.2619 0055358 350.2877   9.7241 14.50024340173044

Track SAUDICOMSAT 2 in real time with AllMySat

Download on the App Store